www.pogodaiklimat.ru

Погода и климат >> Архив погоды >> Португалия >> Бежа аэропорт


ПОГОДА в Бежа аэропорту

  • Прогноз погоды в Бежа аэропорту
  • Монитор погоды в Бежа аэропорту

АРХИВ ПОГОДЫ в Бежа аэропорту

Время (UTC), дата Ветер
(напр.,м/с)
 
Видим.   Явления Облачность Т
(С)
Тd
(С)
f
(%)
Тe
(С)
Тes
(С)
Комфортность P
(гПа)
Po
(гПа)
Тmin
(С)
Tmax
(С)
R
(мм)
R24
(мм)
S
(см)
21 18.08 СЗ 5
{10}
20 км ясно +23.9 +18.9 74 +29 +29 душно 1016.3 993.9
00 19.08 СЗ 5 20 км ясно +20.1 +15.0 72 +22 +22 комфорт 1017.3 994.6
03 19.08 СЗ 3 20 км ясно +16.9 +11.9 72 +17 +17 1017.2 994.2
06 19.08 СЗ 4 20 км 1/1 1200 м
[Sc Ci fib]
+14.7 +11.7 82 +13 +13 1017.3 994.1 +14.7
09 19.08 СЗ 5
{8}
20 км 1/0
[Ci fib]
+19.5 +12.1 62 +21 +25 комфорт 1017.4 994.6
12 19.08 СЗ 5-8
{9}
20 км 1/0
[Ci fib]
+25.9 +8.6 33 +26 +35 жарко 1016.9 994.6
15 19.08 СЗ 4-10
{10}
20 км 1/0
[Ci fib]
+29.8 +6.1 22 +28 +36 жарко 1015.2 993.2
18 19.08 СЗ 6
{11}
20 км 1/0
[Ac und Ci fib]
+28.0 +8.6 30 +28 +28 жарко 1014.8 992.7 +30.5
21 19.08 СЗ 6-9
{11}
20 км 1/0
[Ac und Ci fib]
+19.8 +9.8 52 +21 +21 комфорт 1017.5 994.7
00 20.08 СЗ 4
{11}
20 км 4/0
[Ac und Ci fib]
+16.9 +11.2 69 +16 +16 1018.3 995.3
03 20.08 З 2 20 км 8/0
[Ci fib]
+15.5 +12.5 82 +15 +15 1017.7 994.6
06 20.08 СЗ 4 10 км туман на расстоянии 5/4 210 м
[St Ci fib]
+14.0 +13.1 94 +12 +12 1017.9 994.7 +14.0
09 20.08 С 4 20 км ясно +19.6 +13.6 68 +21 +26 комфорт 1018.1 995.3
12 20.08 СВ 3 20 км ясно +27.7 +11.5 37 +29 +43 жарко 1017.0 994.8
15 20.08 В 3 20 км ясно +32.8 +6.5 19 +31 +41 жарко 1014.6 992.9
18 20.08 С 5 20 км ясно +33.2 +4.4 16 +31 +31 жарко 1013.9 992.2 +34.2
21 20.08 З 4 20 км ясно +24.3 +12.4 47 +26 +26 жарко 1016.1 993.7
00 21.08 СЗ 4 20 км ясно +20.3 +11.9 58 +22 +22 комфорт 1016.1 993.4
03 21.08 З 4 20 км ясно +17.8 +11.7 67 +18 +18 1016.3 993.4
06 21.08 СЗ 2 20 км 1/0
[Ac trans]
+15.5 +11.5 77 +15 +15 1017.3 994.2 +15.5
09 21.08 ЮВ 2 20 км 1/0
[Ci]
+24.2 +12.4 48 +26 +33 жарко 1017.0 994.6
12 21.08 С 3-6
{9}
20 км ясно +31.9 +9.2 25 +31 +46 жарко 1016.2 994.4
15 21.08 нст 2
{8}
20 км 3/3 1440 м
[Cu med, cong]
+35.7 +5.5 15 +33 +41 жарко 1014.3 992.8
18 21.08 С 1
{6}
20 км 3/3 1440 м
[Cu med, cong]
+34.8 +2.8 13 +32 +33 жарко 1013.9 992.3 +35.7
21 21.08 ЮЗ 4 20 км 1/1 1200 м
[Cu med, cong]
+24.3 +11.1 43 +26 +26 жарко 1016.6 994.2
00 22.08 З 4 20 км ясно +21.3 +12.6 58 +24 +24 комфорт 1016.9 994.3
03 22.08 ЮЗ 2 20 км ясно +19.6 +12.5 64 +22 +22 комфорт 1016.7 993.9
06 22.08 ЮВ 2 20 км 1/0
[Ac und]
+16.7 +12.1 74 +17 +17 1017.1 994.1 +16.7
09 22.08 ЮВ 2 20 км 1/0
[Ac trans]
+26.5 +14.5 48 +29 +36 жарко 1017.2 995.0
12 22.08 В 2 20 км ясно +32.2 +13.3 32 +33 +50 жарко 1016.2 994.4
15 22.08 С 2-8
{8}
20 км 3/0
[Ac cast Ci fib]
+35.4 +12.2 25 +35 +45 очень
жарко
1014.1 992.6
18 22.08 ЮВ 2-5
{7}
20 км 4/0 2000 м
[Ac cast Ci fib]
+35.4 +10.9 23 +35 +36 очень
жарко
1012.9 991.4 +36.5
21 22.08 З 5-8
{11}
20 км 3/0
[Ac cast]
+25.6 +10.1 38 +26 +26 жарко 1015.9 993.6
00 23.08 ЮЗ 3
{6}
20 км ясно +23.3 +9.8 42 +25 +25 комфорт 1015.7 993.2
03 23.08 Ю 3 20 км ясно +20.4 +13.7 65 +23 +23 комфорт 1015.8 993.1
06 23.08 штиль 0 20 км 1/0
[Ac trans]
+19.0 +12.8 67 +20 +20 1016.5 993.7 +19.0
09 23.08 В 2 20 км ясно +27.1 +14.4 46 +30 +37 душно 1017.1 994.9
12 23.08 С 2 20 км ясно +32.1 +13.2 32 +33 +50 жарко 1016.0 994.2
15 23.08 С 2 20 км ясно +35.7 +9.7 21 +35 +46 очень
жарко
1014.0 992.5
18 23.08 З 6-10
{10}
20 км ясно +33.7 +10.7 25 +33 +34 жарко 1013.0 991.4 +37.2
21 23.08 З 4 20 км ясно +27.7 +11.1 36 +29 +29 жарко 1015.3 993.2
00 24.08 З 3 20 км ясно +22.8 +13.7 56 +26 +26 жарко 1016.2 993.7
03 24.08 З 3 20 км ясно +20.5 +11.8 57 +23 +23 комфорт 1016.2 993.5
06 24.08 ЮЗ 2 20 км 3/3 1050 м
[Cu med, cong]
+18.8 +12.4 66 +20 +20 1016.5 993.7 +18.4
09 24.08 З 2 20 км ясно +25.2 +10.1 39 +26 +33 жарко 1017.0 994.7
12 24.08 СЗ 4
{6}
20 км ясно +31.1 +10.2 28 +31 +42 жарко 1016.5 994.6
15 24.08 З 5-8
{8}
20 км ясно +35.3 +7.8 18 +33 +39 жарко 1014.6 993.0
18 24.08 З 7
{9}
20 км ясно +32.9 +11.2 27 +33 +33 жарко 1013.8 992.1 +35.6
00 25.08 СЗ 4
{8}
20 км ясно +21.9 +6.7 37 +23 +23 комфорт 1016.2 993.6
03 25.08 СЗ 3
{8}
20 км ясно +19.1 +11.0 59 +20 +20 1016.2 993.4
06 25.08 З 3 20 км 3/1 1200 м
[Cu med, cong Ac As Ci]
+16.2 +13.2 82 +16 +16 1016.4 993.4 +16.2
09 25.08 СЗ 3 20 км 4/0 2000 м
[Ac und Ci]
+20.9 +13.7 63 +24 +29 комфорт 1016.6 993.9
12 25.08 СЗ 4 20 км 8/0 2000 м
[Ac und Ci]
+27.7 +11.1 36 +29 +38 жарко 1014.5 992.4
15 25.08 СЗ 5 20 км 3/1 840 м
[Cu hum Ci fib]
+31.4 +11.0 29 +32 +37 жарко 1012.4 990.6
18 25.08 З 7
{11}
20 км 9/8 1050 м
[Cu med, cong Ac trans]
+27.0 +10.6 36 +28 +28 жарко 1012.1 990.0 +32.2

 

Местоположение метеостанции Бежа аэропорт (Португалия): широта 38.07 долгота -7.92 высота над уровнем моря 203 м.

В архиве по умолчанию представлена погода в Бежа аэропорту за последнюю неделю. Архивные данные за месяц целиком и за предыдущие месяцы, начиная с января 2011 года, Вы можете получить, выбрав интересующий диапазон дат из раскрывающегося списка и нажав кнопку "Ввод!".


*Определитесь, кто Вы:
робот инопланетянин человек

Внимание! Время в таблицах - всемирное. Для получения местного времени необходимо прибавить поправку, которая равна 0 ч.

Смотрите также архив погоды в соседних городах и на ближайших метеорологических станциях:

Погода в Беже (Португалия) (7 км)
Погода в Эворе (Португалия) (51 км)
Погода в Синише (Португалия) (84 км)
Погода в Херес-де-лос-Кабалье (Испания) (105 км)
Погода в Айямонте - Исла Канель (Испания) (108 км)
Погода в Алахар - Кабезо Молин (Испания) (112 км)
Погода в Фару (Португалия) (117 км)
Погода в Монтижу (Португалия) (119 км)
Погода в Уэльве (Испания) (124 км)
Погода в Лиссабоне (Португалия) (129 км)

Пояснения к столбцам:

Ветер - указаны скорость ветра в м/с - средняя за 10 мин, порывы в срок и между сроками (в фигурных скобках) и направление, откуда дует ветер: С - северный, СВ - северо-восточный, В - восточный, ЮВ - юго-восточный, Ю - южный, ЮЗ - юго-западный, З - западный, СЗ - северо-западный.
Видимость - горизонтальная дальность видимости в метрах или километрах. При видимости от 1 до 10 км при отсутствии осадков обычно наблюдается дымка, при ухудшении видимости до 1 км и менее - туман. В сухую погоду видимость может ухудшаться дымом, пылью или мглою.
Явления - указаны атмосферные явления, наблюдавшиеся в срок или в последний час перед сроком; фигурными скобками обозначены явления, наблюдавшиеся между сроками (за 1-3 часа до срока); квадратными скобками обозначены град или гололедные отложения с указанием их диаметра в мм.
Облачность - указаны через наклонную черту общая и нижняя облачность в баллах и высота нижней границы облаков в метрах; квадратными скобками обозначены формы облаков: Ci - перистые, Cs - перисто-слоистые, Cc - перисто-кучевые, Ac - высококучевые, As - высокослоистые, Sc - слоисто-кучевые, Ns - слоисто-дождевые, Cu - кучевые, Cb - кучево-дождевые. Подробнее классификацию облаков см. в Атласе облаков (PDF).
T - Температура воздуха - температура, измеренная на высоте 2 м над землей.
Td - Температура точки росы - температура, при понижении до которой содержащийся в воздухе водяной пар достигнет насыщения.
f - Относительная влажность воздуха - влажноcть воздуха, измеренная на высоте 2 м над землей.
Te - Эффективная температура - температура, которую ощущает одетый по сезону человек в тени. Характеристика душности погоды. При расчете учитывается влияние влажности воздуха и скорости ветра на теплоощущения человека.
Tes - Эффективная температура на солнце - температура, которую ощущает человек, с поправкой на солнечный нагрев. Характеристика знойности погоды. Зависит от высоты солнца над горизонтом, облачности и скорости ветра. Ночью, в пасмурную погоду, а также при ветре 12 м/с и более поправка равна нулю.
P - Атмосферное давление - приведенное к уровню моря атмосферное давление.
Po - Атмосферное давление - измеренное на уровне метеостанции атмосферное давление.
Tmin - Минимальная температура - минимум температуры воздуха на высоте 2 м над землей.
Tmax - Максимальная температура - максимум температуры воздуха на высоте 2 м над землей.
R - Количество осадков - Количество выпавших осадков за период времени, мм. При наведении курсора мыши на число - период времени, за который выпало указанное количество осадков.
R24 - Количество осадков - Количество выпавших осадков за 24 часа, мм.
S - Снежный покров - Высота снежного покрова, см. При наведении курсора мыши на число - состояние снежного покрова и степень покрытия местности в баллах.